Terminal Aerodrome Forecast
Issued by NWS

Home | Current Version | Previous Version | Text Only | Print | Product List | Glossary On
Versions: 1 2 3 4 5 6 7 8 9 10 11 12 13 14 15 16 17 18 19 20 21 22 23 24 25 26 27 28 29 30 31 32 33 34
000
FTPA31 PHFO 261700
TAFLNY
TAF
PHNY 261740Z 2618/2718 33005KT P6SM SCT020
     FM262100 26011KT P6SM SCT020 BKN025
     FM270500 33008KT P6SM SCT020
     FM270900 01008KT P6SM FEW030
      AMD NOT SKED=

USA.gov is the U.S. government's official web portal to all federal, state and local government web resources and services.